FW8987 Weather Reports


Display with metric or nautical units.
time (UTC)temp
F
wind
direction
speed
MPH
gust
MPH
rain 1hr
in
rain 24hr
in
rain mn
in
humidity
%
barometer
mb
20240227111521 36 192 2.0 8.0 0.00 0.00 0.00 81 1017.5
20240227110522 37 189 2.0 7.0 0.00 0.00 0.00 80 1017.7
20240227105542 36 168 1.0 2.0 0.00 0.00 0.00 80 1017.6
20240227104523 36 196 4.0 7.0 0.00 0.00 0.00 81 1017.5
20240227103524 36 202 2.0 9.0 0.00 0.00 0.00 81 1017.5
20240227102524 36 212 5.0 9.0 0.00 0.00 0.00 81 1017.4
20240227101524 34 157 2.0 6.0 0.00 0.00 0.00 84 1017.6
20240227100524 33 157 1.0 5.0 0.00 0.00 0.00 86 1017.5
20240227095524 32 148 1.0 3.0 0.00 0.00 0.00 88 1017.6
20240227094525 33 159 1.0 2.0 0.00 0.00 0.00 87 1017.5
20240227093525 31 186 1.0 2.0 0.00 0.00 0.00 90 1017.5
20240227092526 30 162 1.0 2.0 0.00 0.00 0.00 90 1017.6
20240227091526 29 164 0.0 1.0 0.00 0.00 0.00 91 1017.7
20240227090527 28 0.0 1.0 0.00 0.00 0.00 92 1017.7
20240227085527 26 160 0.0 1.0 0.00 0.00 0.00 93 1017.8
20240227084528 25 169 0.0 1.0 0.00 0.00 0.00 93 1017.9
20240227083528 24 161 0.0 1.0 0.00 0.00 0.00 95 1017.9
20240227082528 23 160 0.0 1.0 0.00 0.00 0.00 95 1018.0
20240227081530 23 157 1.0 2.0 0.00 0.00 0.00 95 1017.9
20240227080530 23 0.0 0.0 0.00 0.00 0.00 97 1018.0
20240227075530 22 160 1.0 1.0 0.00 0.00 0.00 97 1018.0
20240227074530 22 169 0.0 1.0 0.00 0.00 0.00 97 1018.0
20240227073530 21 0.0 0.0 0.00 0.00 0.00 98 1018.0
20240227072532 19 0.0 0.0 0.00 0.00 0.00 97 1017.9
20240227071532 18 0.0 0.0 0.00 0.00 0.00 97 1018.1
20240227070518 18 0.0 0.0 0.00 0.00 0.00 97 1018.1
20240227065547 17 0.0 0.0 0.00 0.00 0.00 97 1018.1
20240227064547 16 0.0 0.0 0.00 0.00 0.00 97 1018.1
20240227063531 16 0.0 0.0 0.00 0.00 0.00 97 1018.2
20240227062532 15 0.0 0.0 0.00 0.00 0.00 97 1018.2
20240227061516 15 0.0 0.0 0.00 0.00 0.00 97 1018.3
20240227060537 15 0.0 0.0 0.00 0.00 0.00 97 1018.2
20240227055516 16 0.0 0.0 0.00 0.00 0.00 97 1018.3
20240227054517 16 0.0 0.0 0.00 0.00 0.00 97 1018.3
20240227053538 16 0.0 0.0 0.00 0.00 0.00 97 1018.0
20240227052518 15 0.0 0.0 0.00 0.00 0.00 97 1018.0
20240227051539 15 0.0 0.0 0.00 0.00 0.00 97 1018.1
20240227050519 16 0.0 0.0 0.00 0.00 0.00 97 1018.2
20240227045520 16 0.0 0.0 0.00 0.00 0.00 97 1018.2
20240227044520 17 0.0 0.0 0.00 0.00 0.00 98 1018.2
20240227043520 17 0.0 1.0 0.00 0.00 0.00 98 1018.2
20240227042522 16 0.0 0.0 0.00 0.00 0.00 97 1018.3
20240227041522 16 0.0 0.0 0.00 0.00 0.00 97 1018.3
20240227040522 17 0.0 0.0 0.00 0.00 0.00 97 1018.1
20240227035523 17 0.0 0.0 0.00 0.00 0.00 98 1018.1
20240227034543 18 0.0 0.0 0.00 0.00 0.00 98 1018.0
20240227033603 17 0.0 0.0 0.00 0.00 0.00 97 1017.9
20240227032523 18 0.0 0.0 0.00 0.00 0.00 98 1018.0
20240227031523 18 0.0 0.0 0.00 0.00 0.00 98 1018.0
20240227030524 19 0.0 0.0 0.00 0.00 0.00 98 1018.1
20240227025524 18 0.0 0.0 0.00 0.00 0.00 98 1018.0
20240227024525 18 0.0 0.0 0.00 0.00 0.00 98 1017.9
20240227023526 19 0.0 0.0 0.00 0.00 0.00 98 1018.0
20240227022526 19 203 0.0 1.0 0.00 0.00 0.00 99 1017.9
20240227021526 19 0.0 0.0 0.00 0.00 0.00 98 1018.0
20240227020547 18 0.0 0.0 0.00 0.00 0.00 98 1017.9
20240227015527 20 0.0 0.0 0.00 0.00 0.00 99 1018.0
20240227014528 19 0.0 0.0 0.00 0.00 0.00 99 1018.0
20240227013528 20 0.0 0.0 0.00 0.00 0.00 99 1018.0
20240227012528 19 0.0 0.0 0.00 0.00 0.00 99 1018.0
20240227011549 20 0.0 0.0 0.00 0.00 0.00 99 1017.8
20240227010549 20 0.0 0.0 0.00 0.00 0.00 99 1017.9
20240227005530 20 0.0 0.0 0.00 0.00 0.00 99 1018.0
20240227004530 20 206 0.0 1.0 0.00 0.00 0.00 99 1018.0
20240227003530 19 0.0 0.0 0.00 0.00 0.00 99 1017.9
20240227002550 21 0.0 0.0 0.00 0.00 0.00 99 1017.9
20240227001532 21 0.0 0.0 0.00 0.00 0.00 99 1018.0
20240227000532 21 0.0 1.0 0.00 0.00 0.00 99 1017.9
20240226235532 20 0.0 0.0 0.00 0.00 0.00 99 1017.8
20240226234532 20 0.0 0.0 0.00 0.00 0.00 99 1017.8
20240226233533 23 0.0 0.0 0.00 0.00 0.00 99 1017.6
20240226232533 23 209 1.0 1.0 0.00 0.00 0.00 99 1017.7
20240226231554 21 0.0 0.0 0.00 0.00 0.00 99 1017.5
20240226230534 22 0.0 0.0 0.00 0.00 0.00 99 1017.6
20240226225554 21 0.0 0.0 0.00 0.00 0.00 99 1017.5
20240226224535 21 0.0 0.0 0.00 0.00 0.00 99 1017.4
20240226223551 21 0.0 0.0 0.00 0.00 0.00 99 1017.3
20240226222553 22 0.0 0.0 0.00 0.00 0.00 99 1017.2
20240226221528 23 0.0 0.0 0.00 0.00 0.00 99 1017.2
20240226220529 23 0.0 0.0 0.00 0.00 0.00 99 1017.1
20240226215529 21 0.0 0.0 0.00 0.00 0.00 99 1017.1
20240226214529 22 0.0 0.0 0.00 0.00 0.00 99 1017.0
20240226213530 23 0.0 0.0 0.00 0.00 0.00 99 1017.0
20240226212531 23 0.0 0.0 0.00 0.00 0.00 99 1016.9
20240226211530 24 0.0 0.0 0.00 0.00 0.00 99 1016.7
20240226210531 24 0.0 0.0 0.00 0.00 0.00 99 1016.7
20240226205531 24 0.0 0.0 0.00 0.00 0.00 99 1016.6
20240226204532 24 0.0 0.0 0.00 0.00 0.00 99 1016.5
20240226203533 25 0.0 0.0 0.00 0.00 0.00 99 1016.4
20240226202551 26 203 0.0 1.0 0.00 0.00 0.00 99 1016.4
20240226201550 25 0.0 0.0 0.00 0.00 0.00 99 1016.3
20240226200549 26 197 0.0 1.0 0.00 0.00 0.00 99 1016.2
20240226195611 26 0.0 0.0 0.00 0.00 0.00 99 1016.1
20240226194550 25 0.0 0.0 0.00 0.00 0.00 99 1016.2
20240226193611 26 0.0 0.0 0.00 0.00 0.00 99 1016.1
20240226192552 26 0.0 0.0 0.00 0.00 0.00 99 1016.2
20240226191613 27 0.0 0.0 0.00 0.00 0.00 99 1016.0
20240226190552 27 0.0 0.0 0.00 0.00 0.00 99 1016.0
20240226185553 28 0.0 0.0 0.00 0.00 0.00 99 1016.0
20240226184537 28 0.0 0.0 0.00 0.00 0.00 99 1015.8
20240226183558 28 0.0 0.0 0.00 0.00 0.00 98 1015.7
20240226182538 29 0.0 0.0 0.00 0.00 0.00 97 1015.5
20240226181538 29 0.0 0.0 0.00 0.00 0.00 95 1015.3
20240226180539 31 214 1.0 2.0 0.00 0.00 0.00 94 1015.1
20240226175559 32 214 1.0 3.0 0.00 0.00 0.00 94 1015.0
20240226174539 32 219 1.0 3.0 0.00 0.00 0.00 93 1015.0
20240226173540 32 217 1.0 3.0 0.00 0.00 0.00 93 1014.9
20240226172541 33 218 1.0 3.0 0.00 0.00 0.00 92 1014.8
20240226171541 33 221 2.0 5.0 0.00 0.00 0.00 91 1014.7
20240226170541 34 242 3.0 6.0 0.00 0.00 0.00 90 1014.7
20240226165541 34 253 3.0 6.0 0.00 0.00 0.00 90 1014.6
20240226164543 35 264 3.0 7.0 0.00 0.00 0.00 89 1014.5
20240226163542 35 245 3.0 9.0 0.00 0.00 0.00 88 1014.4
20240226162619 36 259 3.0 6.0 0.00 0.00 0.00 86 1014.2
20240226161600 36 262 5.0 8.0 0.00 0.00 0.00 84 1014.2
20240226160559 37 279 5.0 8.0 0.00 0.00 0.00 83 1014.2
20240226155601 38 279 4.0 9.0 0.00 0.00 0.00 81 1013.9
20240226154517 39 274 4.0 8.0 0.00 0.00 0.00 80 1013.8
20240226153517 40 265 3.0 5.0 0.00 0.00 0.00 77 1013.6
20240226152518 41 249 2.0 3.0 0.00 0.00 0.00 75 1013.4
20240226151517 43 249 2.0 3.0 0.00 0.00 0.00 72 1013.4
20240226150519 43 187 0.0 1.0 0.00 0.00 0.00 73 1013.3
20240226145542 44 205 0.0 1.0 0.00 0.00 0.00 73 1013.1
20240226144544 43 196 1.0 2.0 0.00 0.00 0.00 75 1013.0
20240226143544 43 157 1.0 2.0 0.00 0.00 0.00 75 1012.9
20240226142547 45 219 0.0 3.0 0.00 0.00 0.00 67 1012.8
20240226141544 45 212 1.0 2.0 0.00 0.00 0.00 68 1012.8
20240226140606 44 226 1.0 3.0 0.00 0.00 0.00 68 1012.7
20240226135517 45 237 2.0 3.0 0.00 0.00 0.00 68 1012.8
20240226134518 45 217 1.0 3.0 0.00 0.00 0.00 68 1012.8
20240226133518 45 215 1.0 2.0 0.00 0.00 0.00 69 1012.7
20240226132518 43 178 0.0 2.0 0.00 0.00 0.00 72 1012.7
20240226131519 43 229 1.0 3.0 0.00 0.00 0.00 73 1012.7
20240226130539 43 255 1.0 3.0 0.00 0.00 0.00 73 1012.7
20240226125520 42 224 1.0 3.0 0.00 0.00 0.00 75 1012.7
20240226124520 42 187 0.0 2.0 0.00 0.00 0.00 76 1012.7
20240226123524 40 164 0.0 1.0 0.00 0.00 0.00 78 1012.7
20240226122548 40 159 1.0 2.0 0.00 0.00 0.00 81 1012.8
20240226121549 40 160 1.0 1.0 0.00 0.00 0.00 82 1012.7
20240226120549 40 165 1.0 1.0 0.00 0.00 0.00 81 1012.6
20240226115550 41 188 0.0 1.0 0.00 0.00 0.00 77 1012.7
20240226114550 40 0.0 0.0 0.00 0.00 0.00 82 1012.8
20240226113552 38 167 0.0 1.0 0.00 0.00 0.00 87 1012.8
20240226112611 37 164 0.0 1.0 0.00 0.00 0.00 90 1012.7
20240226111613 36 163 0.0 1.0 0.00 0.00 0.00 91 1012.8